Camarillo, CA

10:40 AM PDT on October 18, 2017 (GMT -0700)
Camarillo

Weather History for KCMA - December, 2010

Change the Weather History Date:

Monday, December 13, 2010

  Actual Average Record
Temperature  
Mean Temperature 63 °F 54 °F  
Max Temperature 76 °F 65 °F 84 °F (1952)
Min Temperature 50 °F 42 °F 34 °F (2007)
Degree Days  
Heating Degree Days 2 12  
Month to date heating degree days 101 141  
Since 1 July heating degree days 433 473  
Cooling Degree Days 0 0  
Month to date cooling degree days 6 0  
Year to date cooling degree days 277 330  
Growing Degree Days 13 (Base 50)    
Moisture  
Dew Point 49 °F    
Average Humidity 68    
Maximum Humidity 100    
Minimum Humidity 36    
Precipitation  
Precipitation 0.00 in 0.04 in 0.22 in (2009)
Month to date precipitation 0.00 0.50  
Year to date precipitation 10.55 13.66  
Since 1 July precipitation 2.68  
Sea Level Pressure  
Sea Level Pressure 30.01 in    
Wind  
Wind Speed 4 mph (WNW)    
Max Wind Speed 13 mph    
Max Gust Speed 15 mph    
Visibility 6 miles    
Events Fog    
T = Trace of Precipitation, MM = Missing Value Source: NWS Daily Summary

Daily Weather History Graph

Daily Weather History Graph

Search for Another Location

Airport or City:

Trip Planner

Search our weather history database for the weather conditions in past years. The results will help you decide how hot, cold, wet, or windy it might be!

Date:

Astronomy

Dec. 13, 2010 Rise Set
Actual Time 6:53 AM PST 4:47 PM PST
Civil Twilight 6:25 AM PST 5:15 PM PST
Nautical Twilight 5:54 AM PST 5:46 PM PST
Astronomical Twilight 5:23 AM PST 6:17 PM PST
Moon 11:51 AM PST (12/13) No Moon Set
Length of Visible Light 10h 49m
Length of Day
9h 53m
First Quarter, 52% of the Moon is Illuminated
Dec 13
First Quarter
Dec 21
Full
Dec 27
Last Quarter
Jan 4
New
Jan 12
First Quarter

Hourly Weather History & Observations

Time (PST) Temp. Dew Point Humidity Pressure Visibility Wind Dir Wind Speed Gust Speed Precip Events Conditions
12:55 AM 55.0 °F 43.0 °F 64% 30.06 in 10.0 mi Calm Calm - N/A   Clear
1:55 AM 54.0 °F 43.0 °F 66% 30.05 in 10.0 mi NW 4.6 mph - N/A   Clear
2:55 AM 51.1 °F 43.0 °F 74% 30.04 in 10.0 mi NW 4.6 mph - N/A   Clear
3:55 AM 53.1 °F 42.1 °F 66% 30.04 in 10.0 mi NE 3.5 mph - N/A   Clear
4:55 AM 53.1 °F 43.0 °F 69% 30.03 in 10.0 mi Calm Calm - N/A   Clear
5:55 AM 52.0 °F 41.0 °F 66% 30.04 in 10.0 mi Calm Calm - N/A   Clear
6:55 AM 51.1 °F 42.1 °F 71% 30.04 in 10.0 mi Calm Calm - N/A   Clear
7:55 AM 57.0 °F 46.9 °F 69% 30.04 in 10.0 mi Calm Calm - N/A   Clear
8:55 AM 66.0 °F 48.0 °F 52% 30.05 in 10.0 mi Calm Calm - N/A   Clear
9:55 AM 72.0 °F 48.0 °F 43% 30.06 in 10.0 mi WNW 4.6 mph - N/A   Clear
10:55 AM 75.0 °F 46.0 °F 36% 30.04 in 10.0 mi SSW 4.6 mph - N/A   Clear
11:55 AM 73.9 °F 53.1 °F 48% 30.01 in 10.0 mi West 11.5 mph - N/A   Clear
12:55 PM 70.0 °F 51.1 °F 51% 29.99 in 10.0 mi WSW 6.9 mph - N/A   Clear
1:55 PM 68.0 °F 54.0 °F 61% 29.98 in 10.0 mi West 5.8 mph - N/A   Clear
2:55 PM 64.0 °F 54.0 °F 70% 29.97 in 10.0 mi SW 6.9 mph - N/A   Clear
3:55 PM 60.1 °F 53.1 °F 78% 29.97 in 10.0 mi SW 4.6 mph - N/A   Clear
4:55 PM 54.0 °F 51.1 °F 90% 29.98 in 5.0 mi West 10.4 mph - N/A   Clear
5:08 PM 53.6 °F 51.8 °F 94% 29.95 in 1.5 mi West 9.2 mph - N/A   Haze
5:55 PM 54.0 °F 52.0 °F 93% 29.99 in 1.5 mi WNW 3.5 mph - N/A   Haze
6:02 PM 53.6 °F 51.8 °F 94% 29.96 in 0.5 mi West 3.5 mph - N/A   Haze
6:55 PM 54.0 °F 52.0 °F 93% 30.00 in 0.5 mi Calm Calm - N/A Fog Fog
7:55 PM 53.1 °F 52.0 °F 96% 30.01 in 0.2 mi Calm Calm - N/A Fog Fog
8:55 PM 52.0 °F 51.1 °F 97% 30.00 in 0.2 mi NE 3.5 mph - N/A Fog Fog
9:55 PM 52.0 °F 50.0 °F 93% 30.00 in 0.2 mi NW 4.6 mph - N/A Fog Fog
10:55 PM 51.1 °F 50.0 °F 96% 30.01 in 0.2 mi Calm Calm - N/A Fog Fog
11:55 PM 52.0 °F 50.0 °F 93% 30.01 in 0.5 mi NE 3.5 mph - N/A Fog Fog